カタログに戻る

DELTA 1 DEB

運用中SSO
NORAD 12176·DEBRIS·🇺🇸 United States

打ち上げ Mar 5, 1978 から Vandenberg Space Force Base

Loading…

次のパス (今後24時間)

TLE

最新Source: Space-Track

元期: Sep 14, 2026, 04:18 UTC

1 12176U 78026R   26257.17971655  .00000022  00000-0  51504-4 0  9996
2 12176  98.9155 138.7891 0065785  54.2269 108.3454 13.89039741310624

AllMySatでDELTA 1 DEBをリアルタイム追跡

Download on the App Store